ALK318 VCBI-WMKK

Flight info

Callsign ALK318
Flight time 3h 33m
Altitude 39000
Route DUDAL1D VEVET P570 MABIX P756 ISVUR R461 PUGER PUGER1G
Aircraft A20N/M-SDE2E3FGHIRWXY/LB1

Departure

Time 2026-04-30 06:56
Airport Bandaranaike International Colombo Airport (VCBI)

Arrival

Time 2026-04-30 10:29
Airport Kuala Lumpur International Airport (WMKK)
Time Latitude Longitude Altitude Speed Heading
2026-04-30 06:37 7.17615 79.88567 30 ft 0 kts 217°
2026-04-30 06:42 7.17621 79.88572 30 ft 2 kts 217°
2026-04-30 06:42 7.17635 79.88583 30 ft 2 kts 217°
2026-04-30 06:42 7.17649 79.88593 30 ft 2 kts 217°
2026-04-30 06:42 7.17662 79.88604 30 ft 2 kts 217°
2026-04-30 06:43 7.17676 79.88614 30 ft 3 kts 217°
2026-04-30 06:43 7.17690 79.88625 30 ft 3 kts 234°
2026-04-30 06:43 7.17696 79.88642 30 ft 3 kts 272°
2026-04-30 06:43 7.17691 79.88659 30 ft 0 kts 310°
2026-04-30 06:47 7.17692 79.88658 30 ft 1 kts 309°
2026-04-30 06:48 7.17710 79.88635 30 ft 8 kts 306°
2026-04-30 06:48 7.17753 79.88576 30 ft 11 kts 308°
2026-04-30 06:48 7.17798 79.88515 30 ft 10 kts 307°
2026-04-30 06:48 7.17837 79.88464 30 ft 9 kts 307°
2026-04-30 06:49 7.17885 79.88437 30 ft 8 kts
2026-04-30 06:49 7.17932 79.88461 31 ft 7 kts 34°
2026-04-30 06:49 7.17987 79.88503 30 ft 13 kts 40°
2026-04-30 06:49 7.18073 79.88569 30 ft 16 kts 43°
2026-04-30 06:50 7.18156 79.88630 30 ft 13 kts 34°
2026-04-30 06:50 7.18222 79.88680 30 ft 13 kts 38°
2026-04-30 06:50 7.18294 79.88737 30 ft 13 kts 37°
2026-04-30 06:50 7.18362 79.88789 30 ft 12 kts 37°
2026-04-30 06:51 7.18424 79.88836 31 ft 11 kts 37°
2026-04-30 06:51 7.18482 79.88881 31 ft 10 kts 38°
2026-04-30 06:51 7.18535 79.88922 31 ft 9 kts 37°
2026-04-30 06:51 7.18583 79.88959 31 ft 8 kts 37°
2026-04-30 06:52 7.18626 79.88992 31 ft 7 kts 37°
2026-04-30 06:52 7.18679 79.89029 31 ft 11 kts 30°
2026-04-30 06:52 7.18750 79.89085 31 ft 15 kts 39°
2026-04-30 06:52 7.18840 79.89153 31 ft 16 kts 36°
2026-04-30 06:53 7.18922 79.89218 30 ft 13 kts 36°
2026-04-30 06:53 7.18982 79.89262 30 ft 10 kts 37°
2026-04-30 06:53 7.19046 79.89312 30 ft 12 kts 36°
2026-04-30 06:53 7.19114 79.89363 30 ft 12 kts 36°
2026-04-30 06:54 7.19179 79.89407 30 ft 11 kts 17°
2026-04-30 06:54 7.19236 79.89374 30 ft 10 kts 310°
2026-04-30 06:54 7.19279 79.89323 30 ft 9 kts 316°
2026-04-30 06:54 7.19304 79.89285 30 ft 5 kts 258°
2026-04-30 06:55 7.19256 79.89243 30 ft 27 kts 217°
2026-04-30 06:55 7.18928 79.88994 33 ft 90 kts 217°
2026-04-30 06:55 7.18278 79.88499 30 ft 142 kts 217°
2026-04-30 06:55 7.17450 79.87871 391 ft 152 kts 219°
2026-04-30 06:56 7.16577 79.87222 891 ft 158 kts 211°
2026-04-30 06:56 7.15505 79.87046 1419 ft 161 kts 163°
2026-04-30 06:56 7.14491 79.87606 1931 ft 180 kts 152°
2026-04-30 06:56 7.13289 79.88263 2273 ft 210 kts 154°
2026-04-30 06:57 7.11937 79.88975 2729 ft 231 kts 154°
2026-04-30 06:57 7.10486 79.89810 3277 ft 246 kts 145°
2026-04-30 06:57 7.09208 79.90974 4064 ft 251 kts 132°
2026-04-30 06:57 7.08185 79.92418 4846 ft 257 kts 122°
2026-04-30 06:58 7.07353 79.94054 5480 ft 268 kts 115°
2026-04-30 06:58 7.06651 79.95814 6186 ft 274 kts 111°
2026-04-30 06:58 7.06022 79.97643 6893 ft 279 kts 108°
2026-04-30 06:58 7.05431 79.99507 7661 ft 280 kts 107°
2026-04-30 06:59 7.04858 80.01390 8445 ft 282 kts 107°
2026-04-30 06:59 7.04301 80.03264 9205 ft 284 kts 106°
2026-04-30 06:59 7.03731 80.05205 9979 ft 287 kts 106°
2026-04-30 06:59 7.03160 80.07162 10462 ft 299 kts 105°
2026-04-30 07:00 7.02560 80.09234 10760 ft 317 kts 105°
2026-04-30 07:00 7.01935 80.11391 11073 ft 332 kts 105°
2026-04-30 07:00 7.01280 80.13650 11575 ft 339 kts 105°
2026-04-30 07:00 7.00615 80.15946 12150 ft 343 kts 105°
2026-04-30 07:01 6.99945 80.18262 12773 ft 346 kts 105°
2026-04-30 07:01 6.99287 80.20604 13397 ft 349 kts 104°
2026-04-30 07:01 6.98682 80.22978 14004 ft 352 kts 103°
2026-04-30 07:01 6.98087 80.25379 14541 ft 355 kts 103°
2026-04-30 07:02 6.97489 80.27805 15078 ft 359 kts 103°
2026-04-30 07:02 6.96884 80.30254 15624 ft 362 kts 103°
2026-04-30 07:02 6.96273 80.32729 16169 ft 366 kts 103°
2026-04-30 07:02 6.95655 80.35224 16718 ft 369 kts 103°
2026-04-30 07:03 6.95032 80.37740 17262 ft 372 kts 103°
2026-04-30 07:03 6.94402 80.40282 17788 ft 376 kts 103°
2026-04-30 07:03 6.93768 80.42843 18277 ft 379 kts 103°
2026-04-30 07:03 6.93128 80.45426 18705 ft 382 kts 103°
2026-04-30 07:04 6.92486 80.48025 19123 ft 384 kts 103°
2026-04-30 07:04 6.91839 80.50642 19542 ft 387 kts 103°
2026-04-30 07:04 6.91186 80.53276 19969 ft 389 kts 104°
2026-04-30 07:04 6.90530 80.55926 20379 ft 391 kts 104°
2026-04-30 07:05 6.89214 80.61238 21195 ft 397 kts 104°
2026-04-30 07:05 6.88534 80.63978 21614 ft 399 kts 104°
2026-04-30 07:05 6.87858 80.66700 22022 ft 402 kts 104°
2026-04-30 07:06 6.87178 80.69438 22442 ft 405 kts 104°
2026-04-30 07:06 6.86493 80.72196 22840 ft 408 kts 104°
2026-04-30 07:06 6.85803 80.74974 23241 ft 411 kts 104°
2026-04-30 07:06 6.85109 80.77770 23632 ft 413 kts 104°
2026-04-30 07:07 6.84411 80.80583 23954 ft 416 kts 104°
2026-04-30 07:07 6.83717 80.83377 24282 ft 418 kts 104°
2026-04-30 07:07 6.83009 80.86227 24635 ft 421 kts 104°
2026-04-30 07:07 6.82298 80.89088 24996 ft 423 kts 104°
2026-04-30 07:08 6.81583 80.91970 25338 ft 426 kts 104°
2026-04-30 07:08 6.80863 80.94864 25681 ft 428 kts 105°
2026-04-30 07:08 6.80138 80.97778 26015 ft 431 kts 105°
2026-04-30 07:08 6.79409 81.00711 26354 ft 433 kts 104°
2026-04-30 07:09 6.78677 81.03655 26686 ft 435 kts 105°
2026-04-30 07:09 6.77939 81.06619 27015 ft 438 kts 105°
2026-04-30 07:09 6.77197 81.09600 27340 ft 440 kts 105°
2026-04-30 07:09 6.76452 81.12593 27645 ft 443 kts 105°
2026-04-30 07:10 6.75848 81.15641 27951 ft 446 kts 98°
2026-04-30 07:10 6.75632 81.18766 28245 ft 449 kts 93°
2026-04-30 07:10 6.75571 81.21922 28529 ft 452 kts 92°
2026-04-30 07:10 6.75538 81.25094 28817 ft 455 kts 91°
2026-04-30 07:11 6.75505 81.28280 29092 ft 457 kts 92°
2026-04-30 07:11 6.75468 81.31486 29374 ft 459 kts 92°
2026-04-30 07:11 6.75429 81.34708 29652 ft 462 kts 92°
2026-04-30 07:11 6.75388 81.37947 29914 ft 464 kts 92°
2026-04-30 07:12 6.75345 81.41205 30154 ft 466 kts 92°
2026-04-30 07:12 6.75302 81.44470 30417 ft 467 kts 92°
2026-04-30 07:12 6.75257 81.47732 30777 ft 466 kts 92°
2026-04-30 07:12 6.75012 81.50971 31118 ft 463 kts 100°
2026-04-30 07:13 6.74369 81.54135 31468 ft 461 kts 104°
2026-04-30 07:13 6.73603 81.57256 31819 ft 459 kts 105°
2026-04-30 07:13 6.72817 81.60364 32173 ft 458 kts 105°
2026-04-30 07:13 6.72033 81.63463 32503 ft 457 kts 105°
2026-04-30 07:14 6.71252 81.66556 32850 ft 456 kts 105°
2026-04-30 07:14 6.70476 81.69641 33173 ft 454 kts 105°
2026-04-30 07:14 6.69702 81.72719 33514 ft 453 kts 105°
2026-04-30 07:14 6.68933 81.75784 33846 ft 452 kts 105°
2026-04-30 07:15 6.68164 81.78845 34125 ft 451 kts 105°
2026-04-30 07:15 6.67397 81.81902 34341 ft 451 kts 105°
2026-04-30 07:15 6.66637 81.84927 34534 ft 452 kts 105°
2026-04-30 07:15 6.65868 81.87992 34755 ft 452 kts 105°
2026-04-30 07:16 6.65098 81.91059 34967 ft 452 kts 105°
2026-04-30 07:16 6.64327 81.94128 35186 ft 453 kts 105°
2026-04-30 07:16 6.63555 81.97199 35398 ft 453 kts 105°
2026-04-30 07:16 6.62785 82.00268 35606 ft 453 kts 105°
2026-04-30 07:17 6.62015 82.03339 35799 ft 453 kts 105°
2026-04-30 07:17 6.61245 82.06414 35983 ft 454 kts 105°
2026-04-30 07:17 6.59697 82.12570 36360 ft 454 kts 105°
2026-04-30 07:18 6.58922 82.15646 36545 ft 454 kts 105°
2026-04-30 07:18 6.58144 82.18730 36741 ft 454 kts 105°
2026-04-30 07:18 6.57366 82.21809 36925 ft 454 kts 105°
2026-04-30 07:18 6.56589 82.24886 37118 ft 454 kts 105°
2026-04-30 07:19 6.55810 82.27964 37304 ft 454 kts 105°
2026-04-30 07:19 6.55031 82.31046 37484 ft 454 kts 105°
2026-04-30 07:19 6.54252 82.34127 37663 ft 454 kts 105°
2026-04-30 07:19 6.53474 82.37204 37844 ft 454 kts 105°
2026-04-30 07:20 6.52695 82.40282 38017 ft 454 kts 105°
2026-04-30 07:20 6.51917 82.43359 38180 ft 454 kts 105°
2026-04-30 07:20 6.51139 82.46432 38350 ft 454 kts 105°
2026-04-30 07:20 6.50372 82.49464 38505 ft 454 kts 105°
2026-04-30 07:21 6.49592 82.52543 38635 ft 454 kts 105°
2026-04-30 07:21 6.48814 82.55615 38770 ft 454 kts 105°
2026-04-30 07:21 6.48036 82.58689 38875 ft 454 kts 105°
2026-04-30 07:22 6.45705 82.67879 38896 ft 451 kts 105°
2026-04-30 07:22 6.44156 82.73985 38895 ft 450 kts 105°
2026-04-30 07:23 6.42609 82.80081 38898 ft 450 kts 105°
2026-04-30 07:23 6.41062 82.86178 38895 ft 450 kts 105°
2026-04-30 07:24 6.39517 82.92269 38894 ft 450 kts 105°
2026-04-30 07:24 6.37971 82.98356 38896 ft 449 kts 105°
2026-04-30 07:25 6.36424 83.04442 38894 ft 449 kts 105°
2026-04-30 07:25 6.34876 83.10525 38897 ft 449 kts 105°
2026-04-30 07:26 6.33329 83.16602 38890 ft 449 kts 105°
2026-04-30 07:26 6.31783 83.22677 38897 ft 449 kts 105°
2026-04-30 07:27 6.30236 83.28749 38893 ft 448 kts 105°
2026-04-30 07:27 6.28948 83.33795 38895 ft 448 kts 105°
2026-04-30 07:28 6.27397 83.39860 38893 ft 448 kts 105°
2026-04-30 07:28 6.25847 83.45928 38894 ft 448 kts 105°
2026-04-30 07:29 6.24298 83.51991 38893 ft 448 kts 105°
2026-04-30 07:29 6.22750 83.58054 38896 ft 448 kts 105°
2026-04-30 07:30 6.20427 83.67147 38894 ft 448 kts 105°
2026-04-30 07:31 6.18877 83.73209 38894 ft 448 kts 105°
2026-04-30 07:31 6.17337 83.79229 38897 ft 448 kts 105°
2026-04-30 07:32 6.15787 83.85285 38893 ft 447 kts 105°
2026-04-30 07:32 6.14237 83.91338 38891 ft 447 kts 105°
2026-04-30 07:33 6.12688 83.97390 38897 ft 447 kts 105°
2026-04-30 07:33 6.11139 84.03442 38896 ft 447 kts 105°
2026-04-30 07:34 6.09588 84.09488 38893 ft 447 kts 105°
2026-04-30 07:34 6.08037 84.15536 38894 ft 447 kts 105°
2026-04-30 07:35 6.06487 84.21581 38895 ft 447 kts 105°
2026-04-30 07:35 6.04934 84.27625 38894 ft 447 kts 105°
2026-04-30 07:36 6.03382 84.33664 38891 ft 447 kts 105°
2026-04-30 07:36 6.01825 84.39704 38892 ft 447 kts 105°
2026-04-30 07:37 6.00266 84.45745 38894 ft 447 kts 105°
2026-04-30 07:37 5.98708 84.51788 38890 ft 447 kts 105°
2026-04-30 07:38 5.97163 84.57787 38893 ft 447 kts 105°
2026-04-30 07:38 5.95609 84.63826 38895 ft 447 kts 105°
2026-04-30 07:39 5.94054 84.69868 38891 ft 447 kts 105°
2026-04-30 07:39 5.92497 84.75905 38891 ft 447 kts 105°
2026-04-30 07:40 5.90939 84.81945 38892 ft 447 kts 105°
2026-04-30 07:40 5.89380 84.87983 38891 ft 447 kts 105°
2026-04-30 07:41 5.87818 84.94027 38892 ft 447 kts 105°
2026-04-30 07:41 5.86256 85.00069 38895 ft 447 kts 105°
2026-04-30 07:42 5.84695 85.06108 38890 ft 447 kts 105°
2026-04-30 07:42 5.83132 85.12148 38890 ft 447 kts 105°
2026-04-30 07:43 5.81570 85.18183 38890 ft 446 kts 105°
2026-04-30 07:43 5.80009 85.24214 38890 ft 446 kts 105°
2026-04-30 07:44 5.78446 85.30246 38890 ft 446 kts 105°
2026-04-30 07:44 5.76883 85.36278 38886 ft 446 kts 105°
2026-04-30 07:45 5.75330 85.42266 38891 ft 446 kts 105°
2026-04-30 07:45 5.73767 85.48294 38891 ft 446 kts 105°
2026-04-30 07:46 5.72203 85.54322 38888 ft 446 kts 105°
2026-04-30 07:46 5.70638 85.60348 38888 ft 446 kts 105°
2026-04-30 07:47 5.69073 85.66371 38886 ft 446 kts 105°
2026-04-30 07:47 5.67507 85.72396 38888 ft 446 kts 105°
2026-04-30 07:48 5.65942 85.78418 38889 ft 446 kts 105°
2026-04-30 07:48 5.64375 85.84442 38885 ft 446 kts 105°
2026-04-30 07:49 5.62809 85.90459 38891 ft 446 kts 105°
2026-04-30 07:49 5.61240 85.96484 38890 ft 446 kts 105°
2026-04-30 07:50 5.59673 86.02499 38886 ft 445 kts 105°
2026-04-30 07:50 5.58105 86.08518 38888 ft 445 kts 105°
2026-04-30 07:51 5.56537 86.14533 38887 ft 445 kts 105°
2026-04-30 07:51 5.54971 86.20541 38888 ft 445 kts 105°
2026-04-30 07:52 5.53403 86.26552 38888 ft 445 kts 105°
2026-04-30 07:52 5.51835 86.32560 38885 ft 445 kts 105°
2026-04-30 07:53 5.50267 86.38564 38888 ft 445 kts 105°
2026-04-30 07:53 5.48699 86.44566 38887 ft 444 kts 105°
2026-04-30 07:54 5.47140 86.50529 38886 ft 444 kts 105°
2026-04-30 07:54 5.45572 86.56528 38883 ft 444 kts 105°
2026-04-30 07:55 5.43993 86.62565 38888 ft 444 kts 105°
2026-04-30 07:55 5.42433 86.68522 38888 ft 444 kts 105°
2026-04-30 07:56 5.40853 86.74556 38887 ft 444 kts 105°
2026-04-30 07:56 5.39293 86.80513 38889 ft 444 kts 105°
2026-04-30 07:57 5.37722 86.86506 38889 ft 444 kts 105°
2026-04-30 07:57 5.36151 86.92499 38886 ft 444 kts 105°
2026-04-30 07:58 5.34580 86.98490 38884 ft 444 kts 104°
2026-04-30 07:58 5.33009 87.04479 38883 ft 444 kts 104°
2026-04-30 07:59 5.31436 87.10470 38884 ft 444 kts 104°
2026-04-30 07:59 5.29863 87.16459 38886 ft 444 kts 104°
2026-04-30 08:00 5.27503 87.25442 38888 ft 444 kts 104°
2026-04-30 08:00 5.25930 87.31428 38885 ft 444 kts 104°
2026-04-30 08:01 5.24356 87.37411 38887 ft 443 kts 104°
2026-04-30 08:01 5.22782 87.43394 38887 ft 443 kts 104°
2026-04-30 08:02 5.20421 87.52365 38885 ft 443 kts 104°
2026-04-30 08:03 5.17271 87.64320 38884 ft 443 kts 104°
2026-04-30 08:04 5.15696 87.70296 38879 ft 443 kts 104°
2026-04-30 08:04 5.14121 87.76269 38877 ft 443 kts 104°
2026-04-30 08:05 5.12547 87.82238 38880 ft 443 kts 104°
2026-04-30 08:05 5.10973 87.88206 38885 ft 442 kts 104°
2026-04-30 08:06 5.09398 87.94172 38883 ft 442 kts 104°
2026-04-30 08:06 5.07821 88.00132 38884 ft 442 kts 105°
2026-04-30 08:07 5.06195 88.06074 38878 ft 442 kts 105°
2026-04-30 08:07 5.04542 88.12013 38881 ft 442 kts 105°
2026-04-30 08:08 5.02903 88.17907 38879 ft 442 kts 105°
2026-04-30 08:08 5.01245 88.23887 38880 ft 442 kts 105°
2026-04-30 08:09 4.99612 88.29777 38884 ft 441 kts 105°
2026-04-30 08:09 4.97969 88.35706 38880 ft 441 kts 105°
2026-04-30 08:10 4.96326 88.41636 38880 ft 441 kts 105°
2026-04-30 08:10 4.94681 88.47565 38878 ft 441 kts 105°
2026-04-30 08:11 4.93035 88.53488 38878 ft 441 kts 105°
2026-04-30 08:11 4.91387 88.59419 38881 ft 441 kts 105°
2026-04-30 08:12 4.89742 88.65340 38875 ft 441 kts 105°
2026-04-30 08:12 4.88097 88.71262 38876 ft 441 kts 105°
2026-04-30 08:13 4.86452 88.77182 38875 ft 441 kts 105°
2026-04-30 08:13 4.84807 88.83102 38873 ft 441 kts 105°
2026-04-30 08:14 4.83160 88.89023 38876 ft 441 kts 105°
2026-04-30 08:14 4.81514 88.94943 38880 ft 441 kts 105°
2026-04-30 08:15 4.79868 89.00856 38876 ft 441 kts 105°
2026-04-30 08:15 4.78219 89.06776 38874 ft 441 kts 105°
2026-04-30 08:16 4.76572 89.12690 38873 ft 440 kts 105°
2026-04-30 08:16 4.74923 89.18604 38870 ft 440 kts 105°
2026-04-30 08:17 4.73552 89.23515 38871 ft 440 kts 105°
2026-04-30 08:17 4.71903 89.29426 38873 ft 440 kts 105°
2026-04-30 08:18 4.70257 89.35338 38875 ft 440 kts 105°
2026-04-30 08:18 4.68611 89.41243 38872 ft 440 kts 105°
2026-04-30 08:19 4.66963 89.47146 38873 ft 440 kts 105°
2026-04-30 08:19 4.65316 89.53049 38871 ft 439 kts 105°
2026-04-30 08:20 4.63669 89.58945 38872 ft 439 kts 105°
2026-04-30 08:20 4.62022 89.64840 38872 ft 439 kts 105°
2026-04-30 08:21 4.60373 89.70739 38871 ft 439 kts 105°
2026-04-30 08:21 4.58724 89.76638 38871 ft 439 kts 105°
2026-04-30 08:22 4.57074 89.82537 38870 ft 439 kts 105°
2026-04-30 08:22 4.55424 89.88433 38873 ft 439 kts 105°
2026-04-30 08:23 4.53774 89.94331 38869 ft 439 kts 105°
2026-04-30 08:23 4.52125 90.00223 38868 ft 439 kts 105°
2026-04-30 08:24 4.50485 90.06080 38867 ft 439 kts 105°
2026-04-30 08:24 4.48836 90.11971 38867 ft 439 kts 105°
2026-04-30 08:25 4.47184 90.17867 38863 ft 439 kts 105°
2026-04-30 08:25 4.45532 90.23762 38865 ft 439 kts 105°
2026-04-30 08:26 4.43880 90.29652 38865 ft 439 kts 105°
2026-04-30 08:26 4.42227 90.35545 38866 ft 439 kts 105°
2026-04-30 08:27 4.40600 90.41441 38865 ft 439 kts 104°
2026-04-30 08:27 4.39102 90.47369 38864 ft 439 kts 103°
2026-04-30 08:28 4.37642 90.53303 38865 ft 439 kts 103°
2026-04-30 08:28 4.36173 90.59235 38866 ft 439 kts 103°
2026-04-30 08:29 4.34692 90.65167 38865 ft 439 kts 103°
2026-04-30 08:29 4.33207 90.71099 38864 ft 439 kts 103°
2026-04-30 08:30 4.31722 90.77030 38860 ft 439 kts 103°
2026-04-30 08:30 4.30238 90.82956 38863 ft 438 kts 103°
2026-04-30 08:31 4.28755 90.88878 38864 ft 438 kts 104°
2026-04-30 08:31 4.27271 90.94800 38862 ft 438 kts 104°
2026-04-30 08:32 4.25789 91.00715 38862 ft 438 kts 104°
2026-04-30 08:32 4.24308 91.06623 38864 ft 437 kts 104°
2026-04-30 08:33 4.22827 91.12526 38864 ft 436 kts 104°
2026-04-30 08:33 4.21349 91.18418 38870 ft 436 kts 104°
2026-04-30 08:34 4.19871 91.24307 38860 ft 435 kts 104°
2026-04-30 08:34 4.18405 91.30144 38857 ft 435 kts 104°
2026-04-30 08:35 4.16930 91.36018 38861 ft 435 kts 104°
2026-04-30 08:35 4.15456 91.41886 38861 ft 434 kts 104°
2026-04-30 08:36 4.13983 91.47746 38861 ft 434 kts 104°
2026-04-30 08:36 4.12511 91.53600 38862 ft 433 kts 104°
2026-04-30 08:37 4.11042 91.59444 38860 ft 433 kts 104°
2026-04-30 08:37 4.09573 91.65282 38861 ft 432 kts 104°
2026-04-30 08:38 4.08105 91.71117 38859 ft 431 kts 104°
2026-04-30 08:38 4.06639 91.76938 38859 ft 431 kts 104°
2026-04-30 08:39 4.05176 91.82751 38861 ft 430 kts 104°
2026-04-30 08:39 4.03714 91.88555 38856 ft 429 kts 104°
2026-04-30 08:40 4.02255 91.94345 38860 ft 429 kts 104°
2026-04-30 08:40 4.00796 92.00127 38859 ft 428 kts 104°
2026-04-30 08:41 3.99313 92.05891 38855 ft 427 kts 104°
2026-04-30 08:41 3.97820 92.11644 38859 ft 426 kts 104°
2026-04-30 08:42 3.96330 92.17385 38854 ft 426 kts 104°
2026-04-30 08:42 3.94879 92.23145 38854 ft 427 kts 100°
2026-04-30 08:43 3.94233 92.29046 38857 ft 427 kts 94°
2026-04-30 08:43 3.93827 92.34989 38854 ft 428 kts 93°
2026-04-30 08:44 3.93444 92.40942 38856 ft 429 kts 93°
2026-04-30 08:44 3.93064 92.46915 38858 ft 430 kts 93°
2026-04-30 08:45 3.92684 92.52894 38850 ft 431 kts 93°
2026-04-30 08:45 3.92304 92.58882 38851 ft 431 kts 93°
2026-04-30 08:46 3.91923 92.64888 38851 ft 432 kts 93°
2026-04-30 08:46 3.91540 92.70902 38854 ft 433 kts 93°
2026-04-30 08:47 3.91157 92.76925 38853 ft 434 kts 93°
2026-04-30 08:47 3.90775 92.82918 38851 ft 435 kts 93°
2026-04-30 08:48 3.90389 92.88962 38850 ft 435 kts 93°
2026-04-30 08:48 3.90002 92.95016 38853 ft 436 kts 93°
2026-04-30 08:49 3.89615 93.01078 38851 ft 436 kts 93°
2026-04-30 08:49 3.89226 93.07145 38855 ft 436 kts 93°
2026-04-30 08:50 3.88838 93.13205 38847 ft 436 kts 93°
2026-04-30 08:50 3.88449 93.19265 38847 ft 436 kts 93°
2026-04-30 08:51 3.88060 93.25315 38847 ft 435 kts 93°
2026-04-30 08:51 3.87671 93.31367 38847 ft 435 kts 94°
2026-04-30 08:52 3.87282 93.37408 38849 ft 435 kts 94°
2026-04-30 08:52 3.86893 93.43443 38846 ft 434 kts 94°
2026-04-30 08:53 3.86505 93.49468 38845 ft 434 kts 94°
2026-04-30 08:53 3.86116 93.55492 38847 ft 433 kts 94°
2026-04-30 08:54 3.85726 93.61511 38844 ft 433 kts 94°
2026-04-30 08:54 3.85337 93.67520 38843 ft 432 kts 94°
2026-04-30 08:55 3.84948 93.73524 38846 ft 432 kts 94°
2026-04-30 08:55 3.84559 93.79519 38844 ft 431 kts 94°
2026-04-30 08:56 3.84173 93.85470 38844 ft 431 kts 94°
2026-04-30 08:56 3.83784 93.91453 38844 ft 431 kts 94°
2026-04-30 08:57 3.83394 93.97434 38840 ft 430 kts 94°
2026-04-30 08:57 3.83003 94.03448 38842 ft 430 kts 94°
2026-04-30 08:58 3.82614 94.09409 38837 ft 429 kts 94°
2026-04-30 08:58 3.82224 94.15368 38838 ft 429 kts 94°
2026-04-30 08:59 3.81836 94.21317 38843 ft 428 kts 95°
2026-04-30 08:59 3.81447 94.27261 38841 ft 427 kts 95°
2026-04-30 09:00 3.81058 94.33195 38839 ft 427 kts 95°
2026-04-30 09:00 3.80671 94.39088 38836 ft 427 kts 95°
2026-04-30 09:01 3.80282 94.45010 38839 ft 426 kts 95°
2026-04-30 09:01 3.79893 94.50931 38839 ft 426 kts 95°
2026-04-30 09:02 3.79310 94.59803 38843 ft 425 kts 95°
2026-04-30 09:02 3.78920 94.65709 38840 ft 425 kts 95°
2026-04-30 09:03 3.78531 94.71610 38843 ft 425 kts 95°
2026-04-30 09:03 3.78141 94.77508 38841 ft 424 kts 95°
2026-04-30 09:04 3.77817 94.82403 38833 ft 424 kts 95°
2026-04-30 09:04 3.77428 94.88288 38837 ft 423 kts 95°
2026-04-30 09:05 3.77039 94.94162 38835 ft 422 kts 95°
2026-04-30 09:05 3.76650 95.00025 38837 ft 422 kts 95°
2026-04-30 09:06 3.76261 95.05878 38834 ft 421 kts 95°
2026-04-30 09:06 3.75871 95.11728 38835 ft 421 kts 95°
2026-04-30 09:07 3.75481 95.17582 38834 ft 421 kts 95°
2026-04-30 09:07 3.75092 95.23432 38833 ft 421 kts 95°
2026-04-30 09:08 3.74702 95.29285 38834 ft 422 kts 95°
2026-04-30 09:08 3.74311 95.35146 38831 ft 422 kts 95°
2026-04-30 09:09 3.73921 95.41006 38833 ft 422 kts 95°
2026-04-30 09:09 3.73533 95.46870 38829 ft 422 kts 95°
2026-04-30 09:10 3.73141 95.52738 38831 ft 422 kts 95°
2026-04-30 09:10 3.72749 95.58606 38833 ft 423 kts 95°
2026-04-30 09:11 3.72355 95.64485 38834 ft 423 kts 95°
2026-04-30 09:11 3.71960 95.70362 38828 ft 424 kts 95°
2026-04-30 09:12 3.71565 95.76248 38829 ft 424 kts 95°
2026-04-30 09:12 3.71166 95.82138 38828 ft 424 kts 95°
2026-04-30 09:13 3.70769 95.87994 38831 ft 424 kts 95°
2026-04-30 09:13 3.70371 95.93889 38825 ft 424 kts 95°
2026-04-30 09:14 3.69974 95.99784 38824 ft 425 kts 95°
2026-04-30 09:14 3.69582 96.05686 38829 ft 425 kts 94°
2026-04-30 09:15 3.69185 96.11587 38830 ft 425 kts 95°
2026-04-30 09:15 3.68783 96.17493 38834 ft 425 kts 95°
2026-04-30 09:16 3.68381 96.23398 38830 ft 425 kts 95°
2026-04-30 09:16 3.67980 96.29302 38826 ft 425 kts 95°
2026-04-30 09:17 3.67580 96.35210 38830 ft 425 kts 95°
2026-04-30 09:17 3.67178 96.41115 38829 ft 426 kts 94°
2026-04-30 09:18 3.66776 96.47030 38827 ft 426 kts 94°
2026-04-30 09:18 3.66373 96.52952 38829 ft 426 kts 94°
2026-04-30 09:19 3.65971 96.58872 38829 ft 427 kts 94°
2026-04-30 09:19 3.65568 96.64803 38838 ft 427 kts 94°
2026-04-30 09:20 3.65162 96.70736 38845 ft 427 kts 94°
2026-04-30 09:20 3.64756 96.76675 38852 ft 428 kts 94°
2026-04-30 09:21 3.64349 96.82619 38861 ft 428 kts 94°
2026-04-30 09:21 3.63942 96.88563 38866 ft 428 kts 94°
2026-04-30 09:22 3.63537 96.94513 38879 ft 429 kts 94°
2026-04-30 09:22 3.63128 97.00468 38888 ft 429 kts 94°
2026-04-30 09:23 3.62717 97.06426 38903 ft 429 kts 94°
2026-04-30 09:23 3.62307 97.12387 38911 ft 429 kts 94°
2026-04-30 09:24 3.61897 97.18356 38924 ft 430 kts 94°
2026-04-30 09:24 3.61486 97.24321 38935 ft 430 kts 94°
2026-04-30 09:25 3.61074 97.30294 38940 ft 430 kts 94°
2026-04-30 09:25 3.60663 97.36265 38936 ft 430 kts 94°
2026-04-30 09:26 3.60250 97.42242 38941 ft 431 kts 94°
2026-04-30 09:26 3.59837 97.48223 38939 ft 431 kts 94°
2026-04-30 09:27 3.59423 97.54206 38938 ft 431 kts 94°
2026-04-30 09:27 3.59009 97.60189 38930 ft 431 kts 94°
2026-04-30 09:28 3.58594 97.66174 38925 ft 431 kts 94°
2026-04-30 09:28 3.58181 97.72126 38919 ft 432 kts 94°
2026-04-30 09:29 3.57765 97.78118 38910 ft 432 kts 94°
2026-04-30 09:29 3.57349 97.84119 38896 ft 432 kts 94°
2026-04-30 09:30 3.56931 97.90126 38889 ft 433 kts 94°
2026-04-30 09:30 3.56512 97.96136 38876 ft 433 kts 94°
2026-04-30 09:31 3.56093 98.02153 38865 ft 434 kts 94°
2026-04-30 09:31 3.55673 98.08174 38854 ft 434 kts 94°
2026-04-30 09:32 3.55252 98.14202 38850 ft 434 kts 94°
2026-04-30 09:32 3.54831 98.20234 38845 ft 435 kts 94°
2026-04-30 09:33 3.54408 98.26275 38837 ft 435 kts 94°
2026-04-30 09:33 3.53986 98.32315 38831 ft 435 kts 94°
2026-04-30 09:34 3.53564 98.38362 38829 ft 436 kts 94°
2026-04-30 09:34 3.53139 98.44420 38826 ft 436 kts 94°
2026-04-30 09:35 3.52714 98.50474 38824 ft 437 kts 94°
2026-04-30 09:35 3.52286 98.56542 38820 ft 437 kts 94°
2026-04-30 09:36 3.51858 98.62605 38815 ft 437 kts 95°
2026-04-30 09:36 3.51430 98.68677 38812 ft 437 kts 95°
2026-04-30 09:37 3.51003 98.74743 38811 ft 437 kts 95°
2026-04-30 09:37 3.50575 98.80810 38805 ft 437 kts 95°
2026-04-30 09:38 3.50147 98.86876 38805 ft 437 kts 95°
2026-04-30 09:38 3.49718 98.92942 38804 ft 437 kts 95°
2026-04-30 09:39 3.49290 98.99004 38806 ft 437 kts 95°
2026-04-30 09:39 3.48860 99.05071 38805 ft 437 kts 95°
2026-04-30 09:40 3.48430 99.11137 38809 ft 437 kts 95°
2026-04-30 09:40 3.48000 99.17206 38812 ft 437 kts 95°
2026-04-30 09:41 3.47570 99.23272 38815 ft 437 kts 95°
2026-04-30 09:41 3.47138 99.29341 38816 ft 437 kts 95°
2026-04-30 09:42 3.46707 99.35408 38815 ft 437 kts 95°
2026-04-30 09:42 3.46275 99.41471 38817 ft 437 kts 95°
2026-04-30 09:43 3.45843 99.47537 38821 ft 437 kts 95°
2026-04-30 09:43 3.45410 99.53602 38820 ft 437 kts 95°
2026-04-30 09:44 3.44980 99.59620 38816 ft 437 kts 95°
2026-04-30 09:44 3.44545 99.65719 38822 ft 436 kts 95°
2026-04-30 09:45 3.44115 99.71735 38825 ft 436 kts 95°
2026-04-30 09:45 3.43683 99.77768 38830 ft 434 kts 95°
2026-04-30 09:46 3.43251 99.83793 38828 ft 434 kts 95°
2026-04-30 09:46 3.42819 99.89817 38831 ft 434 kts 95°
2026-04-30 09:47 3.42388 99.95829 38451 ft 431 kts 95°
2026-04-30 09:47 3.42173 99.98818 37865 ft 430 kts 95°
2026-04-30 09:47 3.41959 100.01796 37301 ft 429 kts 95°
2026-04-30 09:48 3.41745 100.04773 36720 ft 428 kts 95°
2026-04-30 09:48 3.41532 100.07742 36144 ft 428 kts 95°
2026-04-30 09:48 3.41319 100.10706 35558 ft 427 kts 94°
2026-04-30 09:48 3.41105 100.13676 34967 ft 428 kts 94°
2026-04-30 09:49 3.40892 100.16642 34381 ft 428 kts 94°
2026-04-30 09:49 3.40677 100.19629 33570 ft 433 kts 94°
2026-04-30 09:49 3.40534 100.21624 32917 ft 438 kts 94°
2026-04-30 09:49 3.40240 100.25720 31740 ft 444 kts 93°
2026-04-30 09:50 3.40015 100.28812 30930 ft 447 kts 94°
2026-04-30 09:50 3.39843 100.30866 30543 ft 445 kts 94°
2026-04-30 09:50 3.39479 100.34928 30366 ft 436 kts 94°
2026-04-30 09:50 3.39298 100.36929 30236 ft 436 kts 94°
2026-04-30 09:51 3.39025 100.39955 30035 ft 436 kts 94°
2026-04-30 09:51 3.38752 100.42973 29777 ft 435 kts 94°
2026-04-30 09:51 3.38481 100.45984 29533 ft 434 kts 94°
2026-04-30 09:51 3.38211 100.48983 29306 ft 432 kts 94°
2026-04-30 09:52 3.37941 100.51970 29078 ft 430 kts 94°
2026-04-30 09:52 3.37673 100.54952 28853 ft 429 kts 94°
2026-04-30 09:52 3.37406 100.57919 28629 ft 427 kts 94°
2026-04-30 09:52 3.37139 100.60875 28403 ft 426 kts 94°
2026-04-30 09:53 3.36874 100.63822 28179 ft 424 kts 94°
2026-04-30 09:53 3.36609 100.66758 27958 ft 423 kts 94°
2026-04-30 09:53 3.36344 100.69685 27728 ft 422 kts 94°
2026-04-30 09:53 3.36079 100.72602 27523 ft 420 kts 94°
2026-04-30 09:54 3.35816 100.75507 27294 ft 419 kts 94°
2026-04-30 09:54 3.35554 100.78405 27063 ft 417 kts 94°
2026-04-30 09:54 3.35292 100.81295 26856 ft 416 kts 94°
2026-04-30 09:54 3.35032 100.84171 26637 ft 415 kts 94°
2026-04-30 09:55 3.34772 100.87043 26419 ft 413 kts 94°
2026-04-30 09:55 3.34515 100.89903 26201 ft 412 kts 94°
2026-04-30 09:55 3.34268 100.92754 25984 ft 411 kts 94°
2026-04-30 09:55 3.34024 100.95597 25766 ft 409 kts 94°
2026-04-30 09:56 3.33786 100.98390 25556 ft 408 kts 94°
2026-04-30 09:56 3.33544 101.01213 25338 ft 407 kts 94°
2026-04-30 09:56 3.33299 101.04065 25125 ft 405 kts 94°
2026-04-30 09:56 3.33061 101.06835 24916 ft 404 kts 94°
2026-04-30 09:57 3.32820 101.09632 24697 ft 403 kts 94°
2026-04-30 09:57 3.32580 101.12420 24490 ft 402 kts 94°
2026-04-30 09:57 3.32340 101.15203 24279 ft 401 kts 94°
2026-04-30 09:57 3.32100 101.17974 24069 ft 399 kts 94°
2026-04-30 09:58 3.31862 101.20738 23856 ft 398 kts 94°
2026-04-30 09:58 3.31623 101.23498 23652 ft 397 kts 95°
2026-04-30 09:58 3.31386 101.26248 23440 ft 396 kts 95°
2026-04-30 09:58 3.31149 101.28988 23197 ft 395 kts 95°
2026-04-30 09:59 3.30677 101.34451 22778 ft 392 kts 95°
2026-04-30 09:59 3.30208 101.39874 22362 ft 390 kts 95°
2026-04-30 10:00 3.29739 101.45266 21953 ft 388 kts 95°
2026-04-30 10:00 3.29507 101.47948 21747 ft 386 kts 95°
2026-04-30 10:01 3.29044 101.53288 21339 ft 384 kts 95°
2026-04-30 10:01 3.28813 101.55944 21126 ft 383 kts 95°
2026-04-30 10:01 3.28583 101.58592 20938 ft 382 kts 95°
2026-04-30 10:02 3.28126 101.63863 20538 ft 379 kts 95°
2026-04-30 10:02 3.27898 101.66488 20342 ft 378 kts 95°
2026-04-30 10:02 3.27669 101.69106 20146 ft 377 kts 95°
2026-04-30 10:02 3.27442 101.71712 19949 ft 376 kts 95°
2026-04-30 10:03 3.27151 101.74303 19710 ft 374 kts 100°
2026-04-30 10:03 3.26313 101.76757 19545 ft 374 kts 117°
2026-04-30 10:03 3.24850 101.78910 19371 ft 374 kts 126°
2026-04-30 10:03 3.23216 101.80929 19166 ft 373 kts 128°
2026-04-30 10:04 3.21558 101.82923 18970 ft 372 kts 128°
2026-04-30 10:04 3.19906 101.84913 18771 ft 371 kts 128°
2026-04-30 10:04 3.18268 101.86897 18584 ft 367 kts 128°
2026-04-30 10:04 3.16674 101.88832 18425 ft 353 kts 128°
2026-04-30 10:05 3.15142 101.90696 18237 ft 341 kts 127°
2026-04-30 10:05 3.13840 101.92628 18005 ft 329 kts 115°
2026-04-30 10:05 3.12990 101.94716 17828 ft 323 kts 108°
2026-04-30 10:05 3.12262 101.96844 17669 ft 323 kts 107°
2026-04-30 10:06 3.11490 101.98957 17444 ft 324 kts 114°
2026-04-30 10:06 3.10384 102.00917 17306 ft 324 kts 121°
2026-04-30 10:06 3.09155 102.02801 17142 ft 323 kts 122°
2026-04-30 10:06 3.07890 102.04661 16932 ft 323 kts 125°
2026-04-30 10:07 3.06378 102.06315 16789 ft 323 kts 134°
2026-04-30 10:07 3.04715 102.07819 16638 ft 323 kts 136°
2026-04-30 10:07 3.03047 102.09276 16435 ft 322 kts 137°
2026-04-30 10:07 3.01227 102.10587 16262 ft 323 kts 147°
2026-04-30 10:08 2.99241 102.11646 16116 ft 324 kts 150°
2026-04-30 10:08 2.97226 102.12642 15956 ft 323 kts 151°
2026-04-30 10:08 2.95164 102.13540 15735 ft 324 kts 160°
2026-04-30 10:08 2.92974 102.14103 15610 ft 325 kts 165°
2026-04-30 10:09 2.90760 102.14558 15423 ft 325 kts 166°
2026-04-30 10:09 2.88537 102.14964 15226 ft 325 kts 171°
2026-04-30 10:09 2.86276 102.14985 15041 ft 327 kts 185°
2026-04-30 10:09 2.84109 102.14285 14909 ft 331 kts 208°
2026-04-30 10:10 2.82417 102.12739 14743 ft 333 kts 235°
2026-04-30 10:10 2.81554 102.10612 14566 ft 333 kts 262°
2026-04-30 10:10 2.81606 102.08318 14395 ft 331 kts 279°
2026-04-30 10:10 2.82005 102.06143 14229 ft 325 kts 282°
2026-04-30 10:11 2.82459 102.03974 14079 ft 313 kts 283°
2026-04-30 10:11 2.82898 102.01878 13903 ft 302 kts 283°
2026-04-30 10:11 2.83314 101.99851 13741 ft 293 kts 282°
2026-04-30 10:11 2.83710 101.97886 13581 ft 283 kts 282°
2026-04-30 10:12 2.84090 101.95986 13420 ft 274 kts 282°
2026-04-30 10:12 2.84456 101.94144 13263 ft 266 kts 282°
2026-04-30 10:12 2.84809 101.92357 13129 ft 259 kts 282°
2026-04-30 10:12 2.85158 101.90590 12998 ft 259 kts 282°
2026-04-30 10:13 2.85507 101.88819 12862 ft 260 kts 282°
2026-04-30 10:13 2.85630 101.87026 12681 ft 260 kts 259°
2026-04-30 10:13 2.85082 101.85312 12349 ft 259 kts 244°
2026-04-30 10:13 2.84199 101.83749 12059 ft 257 kts 235°
2026-04-30 10:14 2.83168 101.82291 11852 ft 256 kts 232°
2026-04-30 10:14 2.82066 101.80895 11684 ft 256 kts 224°
2026-04-30 10:14 2.78946 101.79855 11220 ft 233 kts 164°
2026-04-30 10:15 2.77443 101.80367 10925 ft 226 kts 152°
2026-04-30 10:15 2.76082 101.81118 10680 ft 222 kts 144°
2026-04-30 10:15 2.74810 101.81984 10445 ft 220 kts 141°
2026-04-30 10:15 2.73579 101.82888 10210 ft 219 kts 140°
2026-04-30 10:16 2.72354 101.83795 9976 ft 219 kts 140°
2026-04-30 10:16 2.71124 101.84686 9740 ft 218 kts 141°
2026-04-30 10:16 2.69885 101.85559 9484 ft 218 kts 142°
2026-04-30 10:17 2.67386 101.87263 9015 ft 217 kts 142°
2026-04-30 10:17 2.64904 101.88923 8560 ft 216 kts 143°
2026-04-30 10:17 2.63641 101.89767 8315 ft 215 kts 142°
2026-04-30 10:18 2.62415 101.90587 8089 ft 215 kts 143°
2026-04-30 10:18 2.61177 101.91417 7860 ft 214 kts 143°
2026-04-30 10:18 2.59942 101.92245 7632 ft 214 kts 143°
2026-04-30 10:19 2.57475 101.93899 7161 ft 213 kts 143°
2026-04-30 10:19 2.56247 101.94722 6946 ft 212 kts 143°
2026-04-30 10:19 2.55011 101.95529 6721 ft 214 kts 148°
2026-04-30 10:19 2.53580 101.95919 6467 ft 217 kts 177°
2026-04-30 10:20 2.52150 101.95489 6230 ft 219 kts 216°
2026-04-30 10:20 2.50254 101.93144 5732 ft 216 kts 236°
2026-04-30 10:20 2.49448 101.91867 5469 ft 218 kts 244°
2026-04-30 10:21 2.49131 101.90419 5244 ft 213 kts 277°
2026-04-30 10:21 2.49710 101.89114 5029 ft 203 kts 316°
2026-04-30 10:21 2.50770 101.88241 4812 ft 195 kts 328°
2026-04-30 10:21 2.51891 101.87500 4613 ft 193 kts 330°
2026-04-30 10:22 2.53038 101.86812 4509 ft 188 kts 332°
2026-04-30 10:22 2.54067 101.86172 4506 ft 159 kts 330°
2026-04-30 10:22 2.54923 101.85604 4480 ft 142 kts 329°
2026-04-30 10:22 2.55746 101.85059 4374 ft 143 kts 329°
2026-04-30 10:23 2.56572 101.84506 4185 ft 143 kts 329°
2026-04-30 10:23 2.57394 101.83951 3973 ft 143 kts 329°
2026-04-30 10:23 2.58217 101.83396 3762 ft 142 kts 329°
2026-04-30 10:23 2.59034 101.82846 3572 ft 141 kts 330°
2026-04-30 10:24 2.59849 101.82298 3377 ft 141 kts 329°
2026-04-30 10:24 2.60663 101.81749 3209 ft 141 kts 328°
2026-04-30 10:24 2.61477 101.81200 3028 ft 141 kts 329°
2026-04-30 10:24 2.62290 101.80653 2856 ft 140 kts 328°
2026-04-30 10:25 2.63091 101.80113 2673 ft 138 kts 328°
2026-04-30 10:25 2.63884 101.79579 2490 ft 137 kts 328°
2026-04-30 10:25 2.64674 101.79047 2321 ft 137 kts 327°
2026-04-30 10:25 2.65465 101.78514 2154 ft 137 kts 327°
2026-04-30 10:26 2.66256 101.77981 1964 ft 137 kts 326°
2026-04-30 10:26 2.67039 101.77453 1796 ft 135 kts 326°
2026-04-30 10:26 2.67817 101.76929 1620 ft 135 kts 325°
2026-04-30 10:26 2.68591 101.76408 1449 ft 134 kts 325°
2026-04-30 10:27 2.69360 101.75890 1273 ft 133 kts 324°
2026-04-30 10:27 2.70128 101.75372 1102 ft 133 kts 324°
2026-04-30 10:27 2.70892 101.74857 950 ft 133 kts 324°
2026-04-30 10:27 2.71655 101.74343 798 ft 131 kts 325°
2026-04-30 10:28 2.72409 101.73835 656 ft 130 kts 325°
2026-04-30 10:28 2.73157 101.73331 492 ft 129 kts 325°
2026-04-30 10:28 2.73895 101.72831 318 ft 127 kts 326°
2026-04-30 10:28 2.74632 101.72339 193 ft 127 kts 327°
2026-04-30 10:29 2.75362 101.71853 72 ft 121 kts 326°
2026-04-30 10:29 2.75975 101.71444 76 ft 87 kts 326°
2026-04-30 10:29 2.76359 101.71187 66 ft 43 kts 328°
2026-04-30 10:29 2.76496 101.71070 70 ft 24 kts 312°
2026-04-30 10:30 2.76572 101.70937 67 ft 5 kts 300°
2026-04-30 10:30 2.76572 101.70936 67 ft 0 kts 300°
2026-04-30 10:30 2.76576 101.70928 62 ft 2 kts 299°
2026-04-30 10:31 2.76586 101.70908 67 ft 4 kts 290°
2026-04-30 10:31 2.76580 101.70871 66 ft 8 kts 237°
2026-04-30 10:31 2.76514 101.70856 66 ft 12 kts 163°
2026-04-30 10:31 2.76448 101.70905 72 ft 12 kts 142°
2026-04-30 10:32 2.76378 101.70948 65 ft 12 kts 149°
2026-04-30 10:32 2.76306 101.70993 66 ft 13 kts 147°
2026-04-30 10:32 2.76233 101.71043 70 ft 13 kts 143°
2026-04-30 10:32 2.76159 101.71093 64 ft 13 kts 146°
2026-04-30 10:33 2.76087 101.71142 74 ft 13 kts 147°
2026-04-30 10:33 2.76011 101.71193 70 ft 14 kts 145°
2026-04-30 10:33 2.75914 101.71258 69 ft 18 kts 147°
2026-04-30 10:33 2.75811 101.71329 76 ft 18 kts 146°
2026-04-30 10:34 2.75704 101.71400 72 ft 19 kts 146°
2026-04-30 10:34 2.75598 101.71471 68 ft 15 kts 148°
2026-04-30 10:34 2.75508 101.71466 70 ft 14 kts 229°
2026-04-30 10:34 2.75452 101.71386 74 ft 14 kts 238°
2026-04-30 10:35 2.75396 101.71303 72 ft 15 kts 238°
2026-04-30 10:35 2.75335 101.71212 74 ft 16 kts 235°
2026-04-30 10:35 2.75261 101.71105 71 ft 21 kts 236°
2026-04-30 10:35 2.75171 101.70974 70 ft 24 kts 235°
2026-04-30 10:36 2.75073 101.70829 65 ft 26 kts 237°
2026-04-30 10:36 2.74980 101.70690 61 ft 19 kts 241°
2026-04-30 10:36 2.75032 101.70593 62 ft 18 kts 331°
2026-04-30 10:36 2.75053 101.70496 61 ft 8 kts 239°
2026-04-30 10:37 2.75021 101.70443 63 ft 9 kts 249°
2026-04-30 10:37 2.75052 101.70400 65 ft 8 kts 328°
2026-04-30 10:37 2.75088 101.70378 68 ft 0 kts 328°
2026-04-30 10:37 2.75090 101.70377 68 ft 0 kts 328°